Location: Stilling
(56.0622°N, 9.9882°E)
Time: 23:35:07
(UTC+00:00)

CZ-4C R/B - Pass Details

Date: 13 July 2020
Orbit: 632 x 1370 km, 63.4° (Epoch: 14 August)

Event Time Altitude Azimuth Distance (km) Brightness Sun altitude
Rises 22:25:37 0° 309° (NW) 3,744 6.5 -11.2°
Reaches altitude 10° 22:28:08 10° 305° (NW) 2,894 5.7 -11.3°
Maximum altitude 22:34:49 49° 233° (SW) 1,502 3.3 -11.5°
Enters shadow 22:41:24 15° 164° (SSE) 2,969 4.3 -11.7°
